User: anonymous   Login
Location: Unspecified
(0.0000°N, 0.0000°E)
Time: 09:48:26
(UTC+00:00)
Language:

ADEOS II - Orbit

View from above orbital plane
View from above orbital plane
View from above satellite
View from above satellite

Ground track
Ground track

The orbit data is extracted from the following two-line orbital elements,

1 27597U 02056A   24110.82498968  .00001185  00000-0  49279-3 0  9994
2 27597  98.6873  57.7669 0000949 135.1298 224.9960 14.28285024111926
Epoch (UTC): 19 April 2024 19:47:59
Eccentricity: 0.0000949
inclination: 98.6873°
perigee height: 797 km
apogee height: 798 km
right ascension of ascending node: 57.7669°
argument of perigee: 135.1298°
revolutions per day: 14.28285024
mean anomaly at epoch: 224.9960°
orbit number at epoch: 11192

The dashed part of the orbit path shows where the satellite is in the earth's shadow,  

DLR